Location: Eschertshofen
(49.3064°N, 11.5756°E)
Time: 02:22:30
(UTC+00:00)

NOSS 8 (F) - Pass Details

Date: 18 September 2020
Orbit: 384 x 1787 km, 63.3° (Epoch: 30 October)

Event Time Altitude Azimuth Distance (km) Brightness Sun altitude
Rises 18:06:23 0° 222° (SW) 2,462 8.6 -8.4°
Reaches altitude 10° 18:08:35 10° 223° (SW) 1,498 7.5 -8.7°
Maximum altitude 18:11:45 83° 309° (NW) 398 4.2 -9.2°
Drops below altitude 10° 18:14:46 10° 41° (NE) 1,426 6.7 -9.7°
Sets 18:16:49 0° 42° (NE) 2,328 7.7 -10.0°
